New River MCAS, NC

4:33 PM EDT on April 24, 2017 (GMT -0400)
New River Marine Corps Air Station

Weather History for KNCA - April, 2012

Change the Weather History Date:

Sunday, April 29, 2012

  Actual Average Record
Temperature  
Mean Temperature 64 °F -  
Max Temperature 71 °F 73 °F 86 °F (2002)
Min Temperature 57 °F 51 °F 44 °F (2004)
Degree Days  
Heating Degree Days 1    
Growing Degree Days 14 (Base 50)    
Moisture  
Dew Point 57 °F    
Average Humidity 79    
Maximum Humidity 87    
Minimum Humidity 68    
Precipitation  
Precipitation 0.00 in - - ()
Sea Level Pressure  
Sea Level Pressure 30.18 in    
Wind  
Wind Speed 4 mph (ENE)    
Max Wind Speed 10 mph    
Max Gust Speed -    
Visibility 10 miles    
Events      
Averages and records for this station are not official NWS values.
T = Trace of Precipitation, MM = Missing Value Source: NWS Daily Summary

Daily Weather History Graph

Daily Weather History Graph

Search for Another Location

Airport or City:

Trip Planner

Search our weather history database for the weather conditions in past years. The results will help you decide how hot, cold, wet, or windy it might be!

Date:

Astronomy

Apr. 29, 2012 Rise Set
Actual Time 6:21 AM EDT 7:53 PM EDT
Civil Twilight 5:54 AM EDT 8:20 PM EDT
Nautical Twilight 5:22 AM EDT 8:52 PM EDT
Astronomical Twilight 4:48 AM EDT 9:26 PM EDT
Moon 1:01 PM EDT (4/29) 1:52 AM EDT (4/29)
Length of Visible Light 14h 26m
Length of Day
13h 32m
First Quarter, 53% of the Moon is Illuminated
Apr 29
First Quarter
May 5
Full
May 12
Last Quarter
May 20
New
May 28
First Quarter

Hourly Weather History & Observations

Time (EDT) Temp. Dew Point Humidity Pressure Visibility Wind Dir Wind Speed Gust Speed Precip Events Conditions
12:48 AM 59.0 °F 53.6 °F 82% 30.14 in 10.0 mi Calm Calm - N/A   Scattered Clouds
12:56 AM 59.0 °F 54.0 °F 83% 30.14 in 10.0 mi Calm Calm - N/A   Partly Cloudy
1:56 AM 57.9 °F 54.0 °F 87% 30.15 in 10.0 mi North 4.6 mph - N/A   Mostly Cloudy
2:30 AM 59.0 °F 53.6 °F 82% 30.13 in 10.0 mi NE 3.5 mph - N/A   Overcast
2:56 AM 59.0 °F 54.0 °F 83% 30.14 in 10.0 mi NNE 3.5 mph - N/A   Overcast
3:56 AM 59.0 °F 54.0 °F 83% 30.14 in 10.0 mi Calm Calm - N/A   Overcast
4:56 AM 59.0 °F 54.0 °F 83% 30.13 in 10.0 mi Calm Calm - N/A   Overcast
5:56 AM 60.1 °F 55.0 °F 83% 30.14 in 10.0 mi Calm Calm - N/A   Overcast
6:56 AM 59.0 °F 54.0 °F 83% 30.18 in 10.0 mi NNE 8.1 mph - N/A   Overcast
7:56 AM 59.0 °F 55.0 °F 87% 30.19 in 9.0 mi North 10.4 mph - N/A   Overcast
8:56 AM 60.1 °F 55.0 °F 83% 30.20 in 7.0 mi NNE 6.9 mph - N/A   Overcast
9:56 AM 61.0 °F 55.0 °F 81% 30.21 in 8.0 mi NE 4.6 mph - N/A   Overcast
10:56 AM 63.0 °F 55.9 °F 78% 30.22 in 10.0 mi NNE 5.8 mph - N/A   Overcast
11:56 AM 66.0 °F 57.0 °F 73% 30.22 in 10.0 mi NNE 6.9 mph - N/A   Overcast
12:33 PM 66.2 °F 57.2 °F 73% 30.20 in 10.0 mi North 6.9 mph - N/A   Overcast
12:56 PM 69.1 °F 59.0 °F 70% 30.20 in 10.0 mi NE 9.2 mph - N/A   Mostly Cloudy
1:38 PM 69.8 °F 60.8 °F 73% 30.18 in 10.0 mi NE 8.1 mph - N/A   Overcast
1:56 PM 70.0 °F 59.0 °F 68% 30.18 in 10.0 mi NE 4.6 mph - N/A   Overcast
2:56 PM 70.0 °F 60.1 °F 71% 30.18 in 10.0 mi NNE 5.8 mph - N/A   Overcast
3:56 PM 71.1 °F 60.1 °F 68% 30.16 in 10.0 mi East 5.8 mph - N/A   Overcast
4:56 PM 71.1 °F 60.1 °F 68% 30.16 in 10.0 mi East 4.6 mph - N/A   Overcast
5:56 PM 69.1 °F 61.0 °F 75% 30.17 in 10.0 mi SE 9.2 mph - N/A   Mostly Cloudy
6:56 PM 64.9 °F 59.0 °F 81% 30.17 in 10.0 mi SE 9.2 mph - N/A   Overcast
7:56 PM 63.0 °F 57.9 °F 84% 30.19 in 10.0 mi SE 6.9 mph - N/A   Overcast
8:07 PM - - N/A% - - North - - N/A   Unknown
8:56 PM 63.0 °F 57.0 °F 81% 30.19 in 10.0 mi ESE 10.4 mph - N/A   Overcast
9:30 PM 62.6 °F 57.2 °F 82% 30.19 in 10.0 mi ESE 8.1 mph - N/A   Partly Cloudy
9:56 PM 61.0 °F 57.0 °F 87% 30.20 in 10.0 mi ESE 9.2 mph - N/A   Partly Cloudy
10:12 PM 62.6 °F 57.2 °F 82% 30.20 in 10.0 mi ESE 8.1 mph - N/A   Mostly Cloudy
10:56 PM 63.0 °F 57.0 °F 81% 30.22 in 10.0 mi ESE 8.1 mph - N/A   Overcast
11:56 PM 63.0 °F 57.9 °F 84% 30.23 in 10.0 mi East 6.9 mph - N/A   Overcast